,,Stat6,,Stat2,,Stat8,,Stat9,,Stat10,,Wind1,,Wind1,
time,status,PA1M_AVG,status,PR1M_SUM,status,RH1M_AVG,status,SR1M_AVG,status,TA1M_AVG,status,W1dAve1m,status,W1sAve1m,
2005-12-06, 00:00:00,VALID,917.032,VALID,0,VALID,94.7892,VALID,-0.101885,VALID,18.518,VALID,354,VALID,0.604421,
2005-12-06, 00:01:00,VALID,917.032,VALID,0,VALID,94.7434,VALID,-0.101885,VALID,18.5609,VALID,340,VALID,0.634415,
2005-12-06, 00:02:00,VALID,917.02,VALID,0,VALID,94.6481,VALID,-0.0849042,VALID,18.5667,VALID,340,VALID,0.607013,
2005-12-06, 00:03:00,VALID,917.006,VALID,0,VALID,94.5463,VALID,-0.0509425,VALID,18.569,VALID,345,VALID,0.614826,
2005-12-06, 00:04:00,VALID,917,VALID,0,VALID,94.4764,VALID,0,VALID,18.5845,VALID,351,VALID,0.324041,
2005-12-06, 00:05:00,VALID,916.994,VALID,0,VALID,94.4446,VALID,0.0339617,VALID,18.5976,VALID,350,VALID,0.52439,
2005-12-06, 00:06:00,VALID,916.985,VALID,0,VALID,94.4166,VALID,0,VALID,18.5879,VALID,342,VALID,0.52782,
2005-12-06, 00:07:00,VALID,916.978,VALID,0,VALID,94.4446,VALID,0.0169808,VALID,18.5979,VALID,316,VALID,0.389863,
2005-12-06, 00:08:00,VALID,916.97,VALID,0,VALID,94.4535,VALID,0,VALID,18.6041,VALID,326,VALID,0.490699,
2005-12-06, 00:09:00,VALID,916.949,VALID,0,VALID,94.4942,VALID,0,VALID,18.6011,VALID,322,VALID,0.345238,
2005-12-06, 00:10:00,VALID,916.95,VALID,0,VALID,94.6659,VALID,0,VALID,18.5815,VALID,319,VALID,0.268429,
2005-12-06, 00:11:00,VALID,916.933,VALID,0,VALID,94.7002,VALID,0.0339617,VALID,18.5494,VALID,319,VALID,0.35293,
2005-12-06, 00:12:00,VALID,916.914,VALID,0,VALID,94.7841,VALID,0.0169808,VALID,18.5466,VALID,319,VALID,0.161395,
2005-12-06, 00:13:00,VALID,916.9,VALID,0,VALID,94.8859,VALID,0,VALID,18.4972,VALID,319,VALID,0.247024,
2005-12-06, 00:14:00,VALID,916.88,VALID,0,VALID,95.0613,VALID,0,VALID,18.4778,VALID,322,VALID,0.353659,
2005-12-06, 00:15:00,VALID,916.849,VALID,0,VALID,95.2559,VALID,0.0849042,VALID,18.4451,VALID,356,VALID,0.681021,
2005-12-06, 00:16:00,VALID,916.822,VALID,0,VALID,95.2712,VALID,0.0169808,VALID,18.4423,VALID,354,VALID,0.827567,
2005-12-06, 00:17:00,VALID,916.799,VALID,0,VALID,95.2661,VALID,0,VALID,18.4358,VALID,349,VALID,0.905717,
2005-12-06, 00:18:00,VALID,916.788,VALID,0,VALID,95.2584,VALID,0.0169808,VALID,18.4328,VALID,334,VALID,0.814986,
2005-12-06, 00:19:00,VALID,916.778,VALID,0,VALID,95.3207,VALID,-0.0169808,VALID,18.4273,VALID,302,VALID,0.406445,
2005-12-06, 00:20:00,VALID,916.767,VALID,0,VALID,95.3907,VALID,-0.0339617,VALID,18.4074,VALID,302,VALID,0.0063244,
2005-12-06, 00:21:00,VALID,916.749,VALID,0,VALID,95.4861,VALID,0,VALID,18.3853,VALID,302,VALID,0.052689,
2005-12-06, 00:22:00,VALID,916.746,VALID,0,VALID,95.7099,VALID,-0.0169808,VALID,18.3463,VALID,302,VALID,0.199777,
2005-12-06, 00:23:00,VALID,916.724,VALID,0,VALID,95.8281,VALID,-0.0339617,VALID,18.3304,VALID,302,VALID,0,
2005-12-06, 00:24:00,VALID,916.714,VALID,0,VALID,95.879,VALID,-0.0509425,VALID,18.3015,VALID,302,VALID,0.165516,
2005-12-06, 00:25:00,VALID,916.709,VALID,0,VALID,96.0824,VALID,-0.0509425,VALID,18.2722,VALID,302,VALID,0.1875,
2005-12-06, 00:26:00,VALID,916.707,VALID,0,VALID,96.1854,VALID,-0.0509425,VALID,18.2466,VALID,302,VALID,0.0749199,
2005-12-06, 00:27:00,VALID,916.713,VALID,0,VALID,96.2109,VALID,-0.0849042,VALID,18.2306,VALID,302,VALID,0,
2005-12-06, 00:28:00,VALID,916.704,VALID,0,VALID,96.2961,VALID,-0.0339617,VALID,18.214,VALID,302,VALID,0.126635,
2005-12-06, 00:29:00,VALID,916.701,VALID,0,VALID,96.4042,VALID,0,VALID,18.1914,VALID,302,VALID,0,
2005-12-06, 00:30:00,VALID,916.706,VALID,0,VALID,96.5898,VALID,-0.0169808,VALID,18.1427,VALID,302,VALID,0.0133681,
2005-12-06, 00:31:00,VALID,916.695,VALID,0,VALID,96.7208,VALID,-0.101885,VALID,18.1369,VALID,302,VALID,0,
2005-12-06, 00:32:00,VALID,916.698,VALID,0,VALID,96.6788,VALID,-0.0509425,VALID,18.1203,VALID,302,VALID,0.00985863,
2005-12-06, 00:33:00,VALID,916.69,VALID,0,VALID,96.7602,VALID,-0.0339617,VALID,18.1076,VALID,302,VALID,0.0505087,
2005-12-06, 00:34:00,VALID,916.67,VALID,0,VALID,96.8696,VALID,-0.0509425,VALID,18.13,VALID,302,VALID,0.195122,
2005-12-06, 00:35:00,VALID,916.663,VALID,0,VALID,96.7895,VALID,-0.0509425,VALID,18.1884,VALID,302,VALID,0.239329,
2005-12-06, 00:36:00,VALID,916.636,VALID,0,VALID,96.6165,VALID,-0.0849042,VALID,18.2334,VALID,311,VALID,0.364955,
2005-12-06, 00:37:00,VALID,916.618,VALID,0,VALID,96.1498,VALID,-0.101885,VALID,18.25,VALID,346,VALID,0.0848722,
2005-12-06, 00:38:00,VALID,916.607,VALID,0,VALID,96.216,VALID,-0.0849042,VALID,18.2371,VALID,346,VALID,0.0134943,
2005-12-06, 00:39:00,VALID,916.593,VALID,0,VALID,96.2948,VALID,-0.101885,VALID,18.257,VALID,346,VALID,0.198785,
2005-12-06, 00:40:00,VALID,916.565,VALID,0,VALID,95.7022,VALID,-0.0849042,VALID,18.2242,VALID,354,VALID,0.300426,
2005-12-06, 00:41:00,VALID,916.566,VALID,0,VALID,95.8281,VALID,-0.0339617,VALID,18.1074,VALID,12,VALID,0.47745,
2005-12-06, 00:42:00,VALID,916.561,VALID,0,VALID,96.5618,VALID,-0.0509425,VALID,18.1372,VALID,347,VALID,0.673363,
2005-12-06, 00:43:00,VALID,916.552,VALID,0,VALID,96.5135,VALID,-0.0679233,VALID,18.1723,VALID,343,VALID,0.336301,
2005-12-06, 00:44:00,VALID,916.552,VALID,0,VALID,96.4398,VALID,-0.0509425,VALID,18.2046,VALID,343,VALID,0.323583,
2005-12-06, 00:45:00,VALID,916.542,VALID,0,VALID,96.3482,VALID,-0.0509425,VALID,18.2535,VALID,319,VALID,0.474888,
2005-12-06, 00:46:00,VALID,916.546,VALID,0,VALID,96.1791,VALID,-0.0679233,VALID,18.2727,VALID,305,VALID,0.240699,
2005-12-06, 00:47:00,VALID,916.536,VALID,0,VALID,96.1333,VALID,-0.0849042,VALID,18.2759,VALID,304,VALID,0.000169837,
2005-12-06, 00:48:00,VALID,916.514,VALID,0,VALID,96.1155,VALID,-0.0169808,VALID,18.2694,VALID,315,VALID,0.349479,
2005-12-06, 00:49:00,VALID,916.496,VALID,0,VALID,96.0608,VALID,0.0509425,VALID,18.2623,VALID,327,VALID,0.38536,
2005-12-06, 00:50:00,VALID,916.489,VALID,0,VALID,95.9616,VALID,0.0339617,VALID,18.2454,VALID,325,VALID,0.0656622,
2005-12-06, 00:51:00,VALID,916.489,VALID,0,VALID,95.6361,VALID,0.0169808,VALID,18.184,VALID,325,VALID,0.00152439,
2005-12-06, 00:52:00,VALID,916.507,VALID,0,VALID,95.5649,VALID,0.0339617,VALID,18.1296,VALID,325,VALID,0,
2005-12-06, 00:53:00,VALID,916.502,VALID,0,VALID,95.7493,VALID,0.0169808,VALID,18.0128,VALID,325,VALID,0.25657,
2005-12-06, 00:54:00,VALID,916.504,VALID,0,VALID,96.4601,VALID,0.0509425,VALID,17.9512,VALID,325,VALID,0.396019,
2005-12-06, 00:55:00,VALID,916.506,VALID,0,VALID,96.9598,VALID,0.0509425,VALID,17.9288,VALID,325,VALID,0.53924,
2005-12-06, 00:56:00,VALID,916.506,VALID,0,VALID,97.3591,VALID,0.0339617,VALID,17.9616,VALID,325,VALID,0.480646,
2005-12-06, 00:57:00,VALID,916.484,VALID,0,VALID,97.2917,VALID,0.0169808,VALID,17.9902,VALID,325,VALID,0.310404,
2005-12-06, 00:58:00,VALID,916.472,VALID,0,VALID,97.0984,VALID,0.0169808,VALID,18.0128,VALID,325,VALID,0.159091,
2005-12-06, 00:59:00,VALID,916.452,VALID,0,VALID,97.0323,VALID,0.0509425,VALID,17.9966,VALID,323,VALID,0.280078,
2005-12-06, 01:00:00,VALID,916.43,VALID,0,VALID,97.1671,VALID,0.0509425,VALID,18.0128,VALID,322,VALID,0.0122768,
2005-12-06, 01:01:00,VALID,916.409,VALID,0,VALID,97.129,VALID,0.0509425,VALID,18.0227,VALID,322,VALID,0,
2005-12-06, 01:02:00,VALID,916.392,VALID,0,VALID,96.9446,VALID,0.0339617,VALID,17.9994,VALID,322,VALID,0,
2005-12-06, 01:03:00,VALID,916.403,VALID,0,VALID,96.9192,VALID,0.0509425,VALID,17.9904,VALID,322,VALID,0,
2005-12-06, 01:04:00,VALID,916.404,VALID,0,VALID,97.0794,VALID,-0.0339617,VALID,17.9784,VALID,322,VALID,0,
2005-12-06, 01:05:00,VALID,916.419,VALID,0,VALID,97.1989,VALID,-0.101885,VALID,18.0017,VALID,322,VALID,0,
2005-12-06, 01:06:00,VALID,916.416,VALID,0,VALID,97.2371,VALID,-0.0339617,VALID,17.9948,VALID,322,VALID,0,
2005-12-06, 01:07:00,VALID,916.419,VALID,0,VALID,97.3388,VALID,-0.0169808,VALID,17.9788,VALID,323,VALID,0.0425145,
2005-12-06, 01:08:00,VALID,916.404,VALID,0,VALID,97.3604,VALID,-0.101885,VALID,17.9883,VALID,322,VALID,0.00186012,
2005-12-06, 01:09:00,VALID,916.401,VALID,0,VALID,97.3006,VALID,-0.0849042,VALID,18.0114,VALID,322,VALID,0.0434451,
2005-12-06, 01:10:00,VALID,916.4,VALID,0,VALID,97.2371,VALID,-0.0509425,VALID,18.0109,VALID,322,VALID,0,
2005-12-06, 01:11:00,VALID,916.396,VALID,0,VALID,97.0679,VALID,-0.0679233,VALID,18.0437,VALID,322,VALID,0,
2005-12-06, 01:12:00,VALID,916.378,VALID,0,VALID,96.9649,VALID,-0.0679233,VALID,18.0467,VALID,322,VALID,0.0580357,
2005-12-06, 01:13:00,VALID,916.374,VALID,0,VALID,96.9293,VALID,-0.0679233,VALID,18.0335,VALID,322,VALID,0.263808,
2005-12-06, 01:14:00,VALID,916.369,VALID,0,VALID,96.9497,VALID,-0.0509425,VALID,18.0365,VALID,325,VALID,0.338299,
2005-12-06, 01:15:00,VALID,916.372,VALID,0,VALID,96.8047,VALID,-0.0509425,VALID,18.0698,VALID,328,VALID,0.0939236,
2005-12-06, 01:16:00,VALID,916.361,VALID,0,VALID,96.6915,VALID,-0.0849042,VALID,18.0691,VALID,328,VALID,0.0116235,
2005-12-06, 01:17:00,VALID,916.331,VALID,0,VALID,96.5809,VALID,-0.0509425,VALID,18.0885,VALID,328,VALID,0,
2005-12-06, 01:18:00,VALID,916.305,VALID,0,VALID,96.5593,VALID,0.0169808,VALID,18.085,VALID,328,VALID,0.292696,
2005-12-06, 01:19:00,VALID,916.297,VALID,0,VALID,96.3393,VALID,0.0679233,VALID,18.094,VALID,328,VALID,0.350347,
2005-12-06, 01:20:00,VALID,916.294,VALID,0,VALID,96.3444,VALID,0.0509425,VALID,18.0908,VALID,328,VALID,0.27096,
2005-12-06, 01:21:00,VALID,916.274,VALID,0,VALID,96.2846,VALID,0.101885,VALID,18.0679,VALID,328,VALID,0.0809832,
2005-12-06, 01:22:00,VALID,916.28,VALID,0,VALID,96.3953,VALID,0.0339617,VALID,18.0488,VALID,328,VALID,0.00600962,
2005-12-06, 01:23:00,VALID,916.249,VALID,0,VALID,96.4754,VALID,0.0339617,VALID,18.0163,VALID,328,VALID,0.0288881,
2005-12-06, 01:24:00,VALID,916.233,VALID,0,VALID,96.6979,VALID,0.0339617,VALID,18.0259,VALID,328,VALID,0.0687145,
2005-12-06, 01:25:00,VALID,916.223,VALID,0,VALID,96.6089,VALID,0.0679233,VALID,18.0292,VALID,328,VALID,0.253162,
2005-12-06, 01:26:00,VALID,916.214,VALID,0,VALID,96.4003,VALID,0.0679233,VALID,17.9876,VALID,329,VALID,0.307065,
2005-12-06, 01:27:00,VALID,916.198,VALID,0,VALID,96.2808,VALID,0.0339617,VALID,17.8965,VALID,347,VALID,0.58689,
2005-12-06, 01:28:00,VALID,916.213,VALID,0,VALID,96.7882,VALID,0.0679233,VALID,17.8132,VALID,347,VALID,0.549538,
2005-12-06, 01:29:00,VALID,916.221,VALID,0,VALID,97.6122,VALID,0.0169808,VALID,17.7903,VALID,347,VALID,0.363281,
2005-12-06, 01:30:00,VALID,916.234,VALID,0,VALID,97.8182,VALID,0.0339617,VALID,17.8231,VALID,347,VALID,0.129542,
2005-12-06, 01:31:00,VALID,916.245,VALID,0,VALID,98.0636,VALID,0,VALID,17.8646,VALID,324,VALID,0.297057,
2005-12-06, 01:32:00,VALID,916.25,VALID,0,VALID,97.8449,VALID,0.0339617,VALID,17.9006,VALID,317,VALID,0,
2005-12-06, 01:33:00,VALID,916.225,VALID,0,VALID,97.6847,VALID,0,VALID,17.8903,VALID,317,VALID,0.126563,
2005-12-06, 01:34:00,VALID,916.206,VALID,0,VALID,97.1557,VALID,0.0339617,VALID,17.8556,VALID,317,VALID,0.36772,
2005-12-06, 01:35:00,VALID,916.206,VALID,0,VALID,97.6847,VALID,0.0339617,VALID,17.8326,VALID,359,VALID,0.559095,
2005-12-06, 01:36:00,VALID,916.209,VALID,0,VALID,97.972,VALID,0.0509425,VALID,17.8649,VALID,358,VALID,0.274368,
2005-12-06, 01:37:00,VALID,916.196,VALID,0,VALID,97.911,VALID,0.0509425,VALID,17.8939,VALID,350,VALID,0.190104,
2005-12-06, 01:38:00,VALID,916.184,VALID,0,VALID,97.7254,VALID,0.0679233,VALID,17.9039,VALID,350,VALID,0.200521,
2005-12-06, 01:39:00,VALID,916.171,VALID,0,VALID,97.6491,VALID,0.0339617,VALID,17.9043,VALID,350,VALID,0.000694444,
2005-12-06, 01:40:00,VALID,916.154,VALID,0,VALID,97.7533,VALID,0.0339617,VALID,17.89,VALID,350,VALID,0.186198,
2005-12-06, 01:41:00,VALID,916.149,VALID,0,VALID,97.7978,VALID,0.0679233,VALID,17.9486,VALID,350,VALID,0.507241,
2005-12-06, 01:42:00,VALID,916.137,VALID,0,VALID,97.6198,VALID,0.0339617,VALID,17.9876,VALID,350,VALID,0.426491,
2005-12-06, 01:43:00,VALID,916.125,VALID,0,VALID,97.3668,VALID,0,VALID,18.007,VALID,350,VALID,0.436198,
2005-12-06, 01:44:00,VALID,916.123,VALID,0,VALID,97.1811,VALID,0.0509425,VALID,17.9971,VALID,350,VALID,0.394531,
2005-12-06, 01:45:00,VALID,916.129,VALID,0,VALID,97.1836,VALID,0.0679233,VALID,18.0197,VALID,350,VALID,0.257813,
2005-12-06, 01:46:00,VALID,916.131,VALID,0,VALID,97.1773,VALID,0.0169808,VALID,18.0066,VALID,350,VALID,0.215625,
2005-12-06, 01:47:00,VALID,916.098,VALID,0,VALID,96.9751,VALID,0.0339617,VALID,18.004,VALID,350,VALID,0.217226,
2005-12-06, 01:48:00,VALID,916.095,VALID,0,VALID,96.895,VALID,0,VALID,17.9818,VALID,350,VALID,0.449479,
2005-12-06, 01:49:00,VALID,916.073,VALID,0,VALID,96.8403,VALID,0.0509425,VALID,17.9747,VALID,350,VALID,0.481326,
2005-12-06, 01:50:00,VALID,916.063,VALID,0,VALID,96.8085,VALID,0.0849042,VALID,17.9327,VALID,350,VALID,0.42359,
2005-12-06, 01:51:00,VALID,916.058,VALID,0,VALID,97.1544,VALID,0.0679233,VALID,17.8836,VALID,350,VALID,0.378516,
2005-12-06, 01:52:00,VALID,916.076,VALID,0,VALID,97.6046,VALID,0.0339617,VALID,17.8969,VALID,308,VALID,0.411337,
2005-12-06, 01:53:00,VALID,916.09,VALID,0,VALID,97.4685,VALID,0.0339617,VALID,17.8907,VALID,214,VALID,0.639881,
2005-12-06, 01:54:00,VALID,916.083,VALID,0,VALID,97.766,VALID,0.0509425,VALID,17.9071,VALID,204,VALID,0.533296,
2005-12-06, 01:55:00,VALID,916.055,VALID,0,VALID,97.8996,VALID,0.0679233,VALID,17.9232,VALID,205,VALID,0.09375,
2005-12-06, 01:56:00,VALID,916.03,VALID,0,VALID,97.883,VALID,0.0339617,VALID,17.9839,VALID,289,VALID,0.543899,
2005-12-06, 01:57:00,VALID,916.007,VALID,0,VALID,97.4113,VALID,0.0679233,VALID,18.0229,VALID,349,VALID,0.74891,
2005-12-06, 01:58:00,VALID,916.008,VALID,0,VALID,96.9662,VALID,0.0849042,VALID,17.9936,VALID,353,VALID,0.50558,
2005-12-06, 01:59:00,VALID,916.026,VALID,0,VALID,97.1061,VALID,0.0679233,VALID,17.9745,VALID,353,VALID,0.30785,
2005-12-06, 02:00:00,VALID,916.039,VALID,0,VALID,97.293,VALID,0.0339617,VALID,17.9807,VALID,353,VALID,0.0507813,
2005-12-06, 02:01:00,VALID,916.035,VALID,0,VALID,97.2587,VALID,0.0509425,VALID,17.9844,VALID,353,VALID,0,
2005-12-06, 02:02:00,VALID,916.053,VALID,0,VALID,97.4316,VALID,0.0339617,VALID,17.9876,VALID,345,VALID,0.131098,
2005-12-06, 02:03:00,VALID,916.061,VALID,0,VALID,97.4761,VALID,0.0509425,VALID,18.0038,VALID,211,VALID,0.598474,
2005-12-06, 02:04:00,VALID,916.068,VALID,0,VALID,97.5283,VALID,0.0509425,VALID,18.007,VALID,207,VALID,0.409598,
2005-12-06, 02:05:00,VALID,916.07,VALID,0,VALID,97.4392,VALID,0.0339617,VALID,18.0262,VALID,207,VALID,0.259084,
2005-12-06, 02:06:00,VALID,916.064,VALID,0,VALID,97.3312,VALID,0.0339617,VALID,18.0324,VALID,207,VALID,0.186047,
2005-12-06, 02:07:00,VALID,916.06,VALID,0,VALID,97.2282,VALID,0,VALID,18.0329,VALID,208,VALID,0.132031,
2005-12-06, 02:08:00,VALID,916.048,VALID,0,VALID,97.087,VALID,0.0169808,VALID,18.0458,VALID,297,VALID,0.303757,
2005-12-06, 02:09:00,VALID,916.052,VALID,0,VALID,96.4868,VALID,0.0509425,VALID,17.9747,VALID,352,VALID,0.00362043,
2005-12-06, 02:10:00,VALID,916.044,VALID,0,VALID,97.0794,VALID,0.0339617,VALID,17.9777,VALID,352,VALID,0.0184659,
2005-12-06, 02:11:00,VALID,916.041,VALID,0,VALID,97.0819,VALID,0.0169808,VALID,17.9876,VALID,352,VALID,0.317472,
2005-12-06, 02:12:00,VALID,916.036,VALID,0,VALID,96.6941,VALID,0,VALID,17.9655,VALID,352,VALID,0.24673,
2005-12-06, 02:13:00,VALID,916.039,VALID,0,VALID,97.1252,VALID,0,VALID,17.9357,VALID,352,VALID,0.233817,
2005-12-06, 02:14:00,VALID,916.022,VALID,0,VALID,97.3718,VALID,0.0339617,VALID,17.9202,VALID,352,VALID,0.0994318,
2005-12-06, 02:15:00,VALID,916.024,VALID,0,VALID,97.4011,VALID,0.0169808,VALID,17.8806,VALID,352,VALID,0,
2005-12-06, 02:16:00,VALID,916.005,VALID,0,VALID,96.9331,VALID,0.0339617,VALID,17.8166,VALID,352,VALID,0.0265997,
2005-12-06, 02:17:00,VALID,915.996,VALID,0,VALID,97.1417,VALID,0,VALID,17.7682,VALID,352,VALID,0.270117,
2005-12-06, 02:18:00,VALID,915.997,VALID,0,VALID,97.5283,VALID,0.0169808,VALID,17.7359,VALID,352,VALID,0.347049,
2005-12-06, 02:19:00,VALID,915.99,VALID,0,VALID,97.7978,VALID,-0.0169808,VALID,17.6941,VALID,351,VALID,0.363467,
2005-12-06, 02:20:00,VALID,915.985,VALID,0,VALID,98.0636,VALID,0,VALID,17.6583,VALID,351,VALID,0.411458,
2005-12-06, 02:21:00,VALID,915.986,VALID,0,VALID,98.4629,VALID,0.0339617,VALID,17.6516,VALID,351,VALID,0.422697,
2005-12-06, 02:22:00,VALID,915.991,VALID,0,VALID,98.6841,VALID,0.0339617,VALID,17.6615,VALID,351,VALID,0.114879,
2005-12-06, 02:23:00,VALID,915.993,VALID,0,VALID,98.7744,VALID,0.0679233,VALID,17.6419,VALID,320,VALID,0.222656,
2005-12-06, 02:24:00,VALID,915.997,VALID,0,VALID,98.9957,VALID,0.0339617,VALID,17.6389,VALID,246,VALID,0.620898,
2005-12-06, 02:25:00,VALID,915.982,VALID,0,VALID,99.2729,VALID,0.0169808,VALID,17.6486,VALID,233,VALID,0.526526,
2005-12-06, 02:26:00,VALID,915.976,VALID,0,VALID,99.4064,VALID,0,VALID,17.6546,VALID,233,VALID,0.436979,
2005-12-06, 02:27:00,VALID,915.96,VALID,0,VALID,99.4509,VALID,0.0169808,VALID,17.6646,VALID,239,VALID,0.361683,
2005-12-06, 02:28:00,VALID,915.964,VALID,0,VALID,99.0249,VALID,0.0509425,VALID,17.6486,VALID,347,VALID,0.296697,
2005-12-06, 02:29:00,VALID,915.973,VALID,0,VALID,98.4362,VALID,0,VALID,17.5386,VALID,3,VALID,0.30907,
2005-12-06, 02:30:00,VALID,915.986,VALID,0,VALID,98.3688,VALID,-0.0169808,VALID,17.4774,VALID,3,VALID,0.0816592,
2005-12-06, 02:31:00,VALID,915.976,VALID,0,VALID,98.8736,VALID,-0.0339617,VALID,17.4548,VALID,3,VALID,0.354226,
2005-12-06, 02:32:00,VALID,915.977,VALID,0,VALID,99.2386,VALID,-0.0169808,VALID,17.4742,VALID,2,VALID,0.0142912,
2005-12-06, 02:33:00,VALID,915.959,VALID,0,VALID,99.3009,VALID,0,VALID,17.4544,VALID,2,VALID,0,
2005-12-06, 02:34:00,VALID,915.943,VALID,0,VALID,99.559,VALID,-0.0169808,VALID,17.4673,VALID,2,VALID,0,
2005-12-06, 02:35:00,VALID,915.94,VALID,0,VALID,99.5628,VALID,0.0509425,VALID,17.4837,VALID,2,VALID,0,
2005-12-06, 02:36:00,VALID,915.917,VALID,0,VALID,99.3428,VALID,-0.0339617,VALID,17.4742,VALID,2,VALID,0,
2005-12-06, 02:37:00,VALID,915.914,VALID,0,VALID,99.2233,VALID,0,VALID,17.4548,VALID,2,VALID,0.122582,
2005-12-06, 02:38:00,VALID,915.926,VALID,0,VALID,99.4306,VALID,0.0169808,VALID,17.4712,VALID,2,VALID,0.114955,
2005-12-06, 02:39:00,VALID,915.93,VALID,0,VALID,99.6137,VALID,-0.0169808,VALID,17.4964,VALID,2,VALID,0.00101902,
2005-12-06, 02:40:00,VALID,915.913,VALID,0,VALID,99.4916,VALID,0.0509425,VALID,17.4871,VALID,2,VALID,0,
2005-12-06, 02:41:00,VALID,915.916,VALID,0,VALID,99.2246,VALID,0.0339617,VALID,17.4453,VALID,2,VALID,0.0994665,
2005-12-06, 02:42:00,VALID,915.907,VALID,0,VALID,98.7465,VALID,0,VALID,17.374,VALID,2,VALID,0.536014,
2005-12-06, 02:43:00,VALID,915.894,VALID,0,VALID,99.2843,VALID,0.0169808,VALID,17.3678,VALID,2,VALID,0.547075,
2005-12-06, 02:44:00,VALID,915.894,VALID,0,VALID,99.7523,VALID,0.0509425,VALID,17.3904,VALID,3,VALID,0.621838,
2005-12-06, 02:45:00,VALID,915.882,VALID,0,VALID,99.6518,VALID,0.0169808,VALID,17.4035,VALID,3,VALID,0.315044,
2005-12-06, 02:46:00,VALID,915.874,VALID,0,VALID,99.6811,VALID,0.0169808,VALID,17.4096,VALID,344,VALID,0.553354,
2005-12-06, 02:47:00,VALID,915.867,VALID,0,VALID,99.6913,VALID,0.0169808,VALID,17.4613,VALID,335,VALID,0.0669389,
2005-12-06, 02:48:00,VALID,915.868,VALID,0,VALID,99.5056,VALID,0.0169808,VALID,17.4615,VALID,335,VALID,0,
2005-12-06, 02:49:00,VALID,915.867,VALID,0,VALID,99.5857,VALID,0.0339617,VALID,17.4979,VALID,335,VALID,0.00272529,
2005-12-06, 02:50:00,VALID,915.862,VALID,0,VALID,99.2945,VALID,0,VALID,17.4709,VALID,335,VALID,0.0970486,
2005-12-06, 02:51:00,VALID,915.873,VALID,0,VALID,99.278,VALID,0,VALID,17.4744,VALID,335,VALID,0.287891,
2005-12-06, 02:52:00,VALID,915.88,VALID,0,VALID,99.3352,VALID,0,VALID,17.4871,VALID,335,VALID,0.087936,
2005-12-06, 02:53:00,VALID,915.868,VALID,0,VALID,99.105,VALID,0.0169808,VALID,17.4615,VALID,338,VALID,0.110647,
2005-12-06, 02:54:00,VALID,915.866,VALID,0,VALID,99.1101,VALID,0.0339617,VALID,17.4417,VALID,344,VALID,0.0539435,
2005-12-06, 02:55:00,VALID,915.867,VALID,0,VALID,99.2182,VALID,0.0339617,VALID,17.4455,VALID,344,VALID,0.0260417,
2005-12-06, 02:56:00,VALID,915.865,VALID,0,VALID,99.2373,VALID,0.0169808,VALID,17.4518,VALID,344,VALID,0.14974,
2005-12-06, 02:57:00,VALID,915.862,VALID,0,VALID,99.2106,VALID,0,VALID,17.4486,VALID,344,VALID,0,
2005-12-06, 02:58:00,VALID,915.839,VALID,0,VALID,99.1826,VALID,0.0339617,VALID,17.4488,VALID,3,VALID,0.253348,
2005-12-06, 02:59:00,VALID,915.829,VALID,0,VALID,99.0656,VALID,0,VALID,17.4488,VALID,8,VALID,0.569922,
2005-12-06, 03:00:00,VALID,915.807,VALID,0,VALID,98.8787,VALID,0.0169808,VALID,17.4492,VALID,10,VALID,0.442951,
2005-12-06, 03:01:00,VALID,915.802,VALID,0,VALID,98.8851,VALID,0.0339617,VALID,17.4518,VALID,7,VALID,0.547763,
2005-12-06, 03:02:00,VALID,915.798,VALID,0,VALID,98.9118,VALID,0.0169808,VALID,17.4776,VALID,7,VALID,0.591463,
2005-12-06, 03:03:00,VALID,915.788,VALID,0,VALID,98.824,VALID,-0.0169808,VALID,17.5198,VALID,7,VALID,0.65767,
2005-12-06, 03:04:00,VALID,915.777,VALID,0,VALID,98.6574,VALID,-0.0169808,VALID,17.5358,VALID,7,VALID,0.659307,
2005-12-06, 03:05:00,VALID,915.768,VALID,0,VALID,98.468,VALID,0,VALID,17.5722,VALID,15,VALID,0.773271,
2005-12-06, 03:06:00,VALID,915.75,VALID,0,VALID,98.3675,VALID,-0.0509425,VALID,17.5651,VALID,16,VALID,0.917708,
2005-12-06, 03:07:00,VALID,915.746,VALID,0,VALID,98.1717,VALID,-0.0169808,VALID,17.5621,VALID,18,VALID,0.960175,
2005-12-06, 03:08:00,VALID,915.758,VALID,0,VALID,97.6885,VALID,0,VALID,17.5265,VALID,16,VALID,0.499609,
2005-12-06, 03:09:00,VALID,915.748,VALID,0,VALID,97.7292,VALID,-0.0169808,VALID,17.4949,VALID,15,VALID,0.515816,
2005-12-06, 03:10:00,VALID,915.731,VALID,0,VALID,98.2569,VALID,0,VALID,17.5005,VALID,9,VALID,0.7831,
2005-12-06, 03:11:00,VALID,915.721,VALID,0,VALID,98.4947,VALID,-0.0169808,VALID,17.536,VALID,23,VALID,0.767721,
2005-12-06, 03:12:00,VALID,915.74,VALID,0,VALID,98.4349,VALID,-0.0169808,VALID,17.5683,VALID,25,VALID,0.38228,
2005-12-06, 03:13:00,VALID,915.759,VALID,0,VALID,98.0636,VALID,0,VALID,17.5618,VALID,20,VALID,0.152616,
2005-12-06, 03:14:00,VALID,915.767,VALID,0,VALID,98.1196,VALID,-0.0169808,VALID,17.5683,VALID,346,VALID,0.25372,
2005-12-06, 03:15:00,VALID,915.77,VALID,0,VALID,98.0471,VALID,0,VALID,17.5718,VALID,346,VALID,0.0951389,
2005-12-06, 03:16:00,VALID,915.766,VALID,0,VALID,97.5143,VALID,0,VALID,17.5005,VALID,10,VALID,0.60245,
2005-12-06, 03:17:00,VALID,915.78,VALID,0,VALID,98.1234,VALID,-0.0169808,VALID,17.5136,VALID,28,VALID,0.724019,
2005-12-06, 03:18:00,VALID,915.793,VALID,0,VALID,98.3599,VALID,0,VALID,17.5397,VALID,23,VALID,0.919331,
2005-12-06, 03:19:00,VALID,915.792,VALID,0,VALID,98.3561,VALID,0,VALID,17.5715,VALID,19,VALID,0.744965,
2005-12-06, 03:20:00,VALID,915.789,VALID,0,VALID,98.1806,VALID,0,VALID,17.5886,VALID,20,VALID,0.728161,
2005-12-06, 03:21:00,VALID,915.781,VALID,0,VALID,98.0127,VALID,-0.0169808,VALID,17.5814,VALID,20,VALID,0.620094,
2005-12-06, 03:22:00,VALID,915.777,VALID,0,VALID,97.8703,VALID,-0.0339617,VALID,17.5683,VALID,20,VALID,0.541016,
2005-12-06, 03:23:00,VALID,915.764,VALID,0,VALID,98.1641,VALID,-0.0339617,VALID,17.5625,VALID,9,VALID,0.715554,
2005-12-06, 03:24:00,VALID,915.779,VALID,0,VALID,98.3408,VALID,-0.0339617,VALID,17.6043,VALID,6,VALID,0.457485,
2005-12-06, 03:25:00,VALID,915.773,VALID,0,VALID,98.3637,VALID,-0.0339617,VALID,17.6101,VALID,6,VALID,0.361861,
2005-12-06, 03:26:00,VALID,915.769,VALID,0,VALID,98.1882,VALID,-0.0169808,VALID,17.6366,VALID,14,VALID,0.411395,
2005-12-06, 03:27:00,VALID,915.765,VALID,0,VALID,98.0979,VALID,0,VALID,17.6329,VALID,33,VALID,0.491629,
2005-12-06, 03:28:00,VALID,915.771,VALID,0,VALID,97.8907,VALID,0.0169808,VALID,17.6237,VALID,20,VALID,0.362891,
2005-12-06, 03:29:00,VALID,915.754,VALID,0,VALID,97.5995,VALID,0,VALID,17.6011,VALID,14,VALID,0.455983,
2005-12-06, 03:30:00,VALID,915.73,VALID,0,VALID,97.3947,VALID,0,VALID,17.5496,VALID,9,VALID,0.645275,
2005-12-06, 03:31:00,VALID,915.732,VALID,0,VALID,97.7419,VALID,-0.0339617,VALID,17.5171,VALID,8,VALID,0.75918,
2005-12-06, 03:32:00,VALID,915.748,VALID,0,VALID,98.0954,VALID,-0.0339617,VALID,17.5267,VALID,4,VALID,0.668968,
2005-12-06, 03:33:00,VALID,915.757,VALID,0,VALID,98.2518,VALID,-0.0339617,VALID,17.5397,VALID,355,VALID,0.384448,
2005-12-06, 03:34:00,VALID,915.755,VALID,0,VALID,98.3383,VALID,0,VALID,17.5593,VALID,360,VALID,0.900484,